Location: Praha
(50.0830°N, 14.4670°E)
Time: 14:57:11
(UTC+02:00)

PW-SAT2 - Visible Passes

Search period start: 20 May 2019 00:00
Search period end: 30 May 2019 00:00
Orbit: 564 x 577 km, 97.8° (Epoch: 19 May)

Date Brightness Start Highest point End Pass type
(mag) Time Alt. Az. Time Alt. Az. Time Alt. Az.
20 May ? 22:48:03 22° S 22:50:34 83° WSW 22:54:38 10° NNW visible
21 May ? 22:50:01 22° S 22:52:33 80° WSW 22:56:37 10° NNW visible
22 May ? 22:51:55 22° S 22:54:31 76° WSW 22:58:34 10° NNW visible
23 May ? 22:53:49 21° S 22:56:25 73° WSW 23:00:29 10° NNW visible
24 May ? 22:55:40 21° S 22:58:19 70° WSW 23:02:22 10° NNW visible
25 May ? 22:57:30 20° S 23:00:11 67° WSW 23:04:13 10° NNW visible
26 May ? 22:59:18 20° S 23:02:01 64° WSW 23:06:03 10° NNW visible
27 May ? 23:01:05 19° S 23:03:49 61° WSW 23:07:50 10° NNW visible
28 May ? 23:02:49 19° S 23:05:36 58° W 23:09:36 10° NNW visible
29 May ? 23:04:32 18° S 23:07:20 56° W 23:11:20 10° NNW visible
